TimeEST,TemperatureF,Dew PointF,Humidity,Sea Level PressureIn,VisibilityMPH,Wind Direction,Wind SpeedMPH,Gust SpeedMPH,PrecipitationIn,Events,Conditions,WindDirDegrees,DateUTC
12:15 AM,30.2,17.6,60,30.24,10.0,North,5.8,-,N/A,,Clear,360,2013-01-16 05:15:00
12:35 AM,30.2,19.4,64,30.24,10.0,North,4.6,-,N/A,,Clear,360,2013-01-16 05:35:00
1:15 AM,28.4,15.8,59,30.23,10.0,North,5.8,-,N/A,,Clear,360,2013-01-16 06:15:00
1:35 AM,28.4,21.2,74,30.24,10.0,North,3.5,-,N/A,,Clear,10,2013-01-16 06:35:00
2:15 AM,30.2,14.0,51,30.23,10.0,North,4.6,-,N/A,,Mostly Cloudy,360,2013-01-16 07:15:00
2:35 AM,28.4,19.4,69,30.22,10.0,North,4.6,-,N/A,,Overcast,360,2013-01-16 07:35:00
2:55 AM,30.2,21.2,69,30.21,10.0,North,5.8,-,N/A,,Overcast,360,2013-01-16 07:55:00
3:16 AM,30.2,17.6,60,30.22,10.0,NNW,4.6,-,N/A,,Overcast,340,2013-01-16 08:16:00
3:35 AM,30.2,15.8,55,30.19,10.0,Calm,Calm,-,N/A,,Overcast,0,2013-01-16 08:35:00
3:55 AM,28.4,23.0,80,30.18,10.0,North,4.6,-,N/A,,Overcast,360,2013-01-16 08:55:00
4:15 AM,30.2,19.4,64,30.16,10.0,North,5.8,-,N/A,,Overcast,360,2013-01-16 09:15:00
4:35 AM,30.2,15.8,55,30.15,10.0,North,4.6,-,N/A,,Overcast,10,2013-01-16 09:35:00
4:55 AM,30.2,21.2,69,30.13,10.0,NNE,6.9,-,N/A,,Overcast,20,2013-01-16 09:55:00
5:15 AM,28.4,24.8,86,30.13,4.0,North,6.9,-,N/A,,Overcast,10,2013-01-16 10:15:00
5:35 AM,28.4,17.6,64,30.14,3.0,NW,4.6,-,N/A,,Overcast,320,2013-01-16 10:35:00
6:35 AM,28.4,19.4,69,30.13,1.5,North,3.5,-,N/A,,Overcast,360,2013-01-16 11:35:00
6:55 AM,28.4,24.8,86,30.12,1.0,North,3.5,-,N/A,,Overcast,360,2013-01-16 11:55:00
7:35 AM,28.4,21.2,74,30.12,0.5,North,3.5,-,N/A,,Overcast,360,2013-01-16 12:35:00
7:55 AM,28.4,23.0,80,30.11,0.8,North,4.6,-,N/A,,Overcast,360,2013-01-16 12:55:00
8:15 AM,28.4,26.6,93,30.11,0.8,North,4.6,-,N/A,,Overcast,360,2013-01-16 13:15:00
8:35 AM,28.4,24.8,86,30.10,0.8,North,5.8,-,N/A,,Overcast,360,2013-01-16 13:35:00
8:55 AM,28.4,21.2,74,30.09,1.8,North,6.9,-,N/A,,Overcast,360,2013-01-16 13:55:00
9:15 AM,28.4,24.8,86,30.08,0.8,North,4.6,-,N/A,,Overcast,360,2013-01-16 14:15:00
9:35 AM,28.4,28.4,100,30.06,1.0,North,6.9,-,N/A,,Overcast,360,2013-01-16 14:35:00
10:15 AM,28.4,21.2,74,30.03,1.0,North,11.5,-,N/A,,Overcast,10,2013-01-16 15:15:00
10:35 AM,28.4,28.4,100,30.01,1.2,North,8.1,-,N/A,,Overcast,360,2013-01-16 15:35:00
10:55 AM,28.4,24.8,86,30.02,1.2,North,8.1,-,N/A,,Overcast,360,2013-01-16 15:55:00
11:15 AM,28.4,21.2,74,29.99,1.5,North,9.2,-,N/A,,Overcast,360,2013-01-16 16:15:00
11:35 AM,28.4,24.8,86,29.96,1.0,North,9.2,-,N/A,,Overcast,10,2013-01-16 16:35:00
11:55 AM,28.4,28.4,100,29.95,2.5,North,6.9,-,N/A,,Overcast,10,2013-01-16 16:55:00
12:15 PM,28.4,21.2,74,29.94,1.8,North,8.1,-,N/A,,Overcast,360,2013-01-16 17:15:00
12:35 PM,28.4,24.8,86,29.94,2.0,North,8.1,-,N/A,,Overcast,360,2013-01-16 17:35:00
12:55 PM,28.4,28.4,100,29.93,1.0,North,8.1,-,N/A,,Overcast,360,2013-01-16 17:55:00
1:15 PM,28.4,24.8,86,29.92,0.8,North,6.9,-,N/A,,Overcast,360,2013-01-16 18:15:00
1:35 PM,28.4,24.8,86,29.90,0.8,North,5.8,-,N/A,,Overcast,360,2013-01-16 18:35:00
1:56 PM,28.4,26.6,93,29.89,0.8,North,5.8,-,N/A,,Overcast,360,2013-01-16 18:56:00
2:15 PM,28.4,28.4,100,29.84,1.0,NE,8.1,-,N/A,,Overcast,50,2013-01-16 19:15:00
2:35 PM,28.4,23.0,80,29.86,3.0,North,8.1,-,N/A,,Overcast,360,2013-01-16 19:35:00
3:15 PM,28.4,26.6,93,29.84,5.0,North,6.9,-,N/A,,Overcast,360,2013-01-16 20:15:00
3:35 PM,28.4,26.6,93,29.84,1.0,North,5.8,-,N/A,,Overcast,360,2013-01-16 20:35:00
3:55 PM,28.4,24.8,86,29.84,1.2,NNW,5.8,-,N/A,,Overcast,340,2013-01-16 20:55:00
4:15 PM,28.4,24.8,86,29.84,1.8,North,6.9,-,N/A,,Overcast,360,2013-01-16 21:15:00
4:35 PM,28.4,26.6,93,29.84,1.8,North,6.9,-,N/A,,Overcast,360,2013-01-16 21:35:00
4:55 PM,28.4,26.6,93,29.84,2.0,NNW,6.9,-,N/A,,Overcast,340,2013-01-16 21:55:00
5:15 PM,28.4,23.0,80,29.84,4.0,North,5.8,-,N/A,,Mostly Cloudy,10,2013-01-16 22:15:00
5:35 PM,28.4,26.6,93,29.83,7.0,North,8.1,-,N/A,,Mostly Cloudy,360,2013-01-16 22:35:00
5:55 PM,28.4,26.6,93,29.83,4.0,North,4.6,-,N/A,,Overcast,360,2013-01-16 22:55:00
6:15 PM,28.4,23.0,80,29.83,5.0,North,4.6,-,0.01,,Overcast,360,2013-01-16 23:15:00
6:35 PM,28.4,24.8,86,29.83,2.5,North,3.5,-,0.01,,Overcast,360,2013-01-16 23:35:00
6:55 PM,28.4,26.6,93,29.81,3.0,Calm,Calm,-,0.02,,Mostly Cloudy,0,2013-01-16 23:55:00
7:15 PM,28.4,28.4,100,29.79,9.0,NNE,4.6,-,0.01,,Overcast,20,2013-01-17 00:15:00
7:35 PM,28.4,23.0,80,29.81,10.0,NW,3.5,-,0.01,,Overcast,310,2013-01-17 00:35:00
8:15 PM,28.4,24.8,86,29.81,10.0,NW,3.5,-,N/A,,Overcast,310,2013-01-17 01:15:00
8:35 PM,28.4,24.8,86,29.81,10.0,Calm,Calm,-,N/A,,Overcast,0,2013-01-17 01:35:00
8:55 PM,28.4,24.8,86,29.82,10.0,West,3.5,-,N/A,,Overcast,260,2013-01-17 01:55:00
9:15 PM,28.4,26.6,93,29.81,10.0,Calm,Calm,-,N/A,,Overcast,0,2013-01-17 02:15:00
9:35 PM,28.4,28.4,100,29.80,10.0,Calm,Calm,-,N/A,,Overcast,0,2013-01-17 02:35:00
9:55 PM,28.4,24.8,86,29.80,10.0,SW,3.5,-,N/A,,Overcast,230,2013-01-17 02:55:00
10:15 PM,28.4,24.8,86,29.79,10.0,WSW,5.8,-,N/A,,Overcast,250,2013-01-17 03:15:00
10:35 PM,28.4,24.8,86,29.79,10.0,SW,6.9,-,N/A,,Overcast,230,2013-01-17 03:35:00
10:55 PM,28.4,26.6,93,29.79,10.0,SW,5.8,-,N/A,,Overcast,230,2013-01-17 03:55:00
11:15 PM,28.4,24.8,86,29.79,10.0,SW,5.8,-,N/A,,Overcast,220,2013-01-17 04:15:00
11:35 PM,28.4,24.8,86,29.78,10.0,SW,5.8,-,N/A,,Overcast,220,2013-01-17 04:35:00
11:55 PM,28.4,26.6,93,29.78,10.0,SW,5.8,-,N/A,,Overcast,220,2013-01-17 04:55:00